[[{"header":{"parameterUnit":"m.s-1","parameterCategory":1,"la1":30.2991,"la2":30.254,"lo1":-89.0895,"lo2":-89.0444,"dy":0.0017,"dx":0.0017,"nx":28,"ny":28,"refTime":"2025-12-28T03:00:00:Z","depth":0,"parameterNumber":2,"parameterNumberName":"U-component_of_WINDS"},"data":[0,0,0,0,0,0,0,0,0,0,0,0,0,0,0,0,0,0,0,0,0,0,0,0,0,0,0,0,0,0,0,0,0,0,0,0,0,0,0,0,0,0,0,0,0,0,0,0,0,0,0,0,0,0,0,0,0,0,-1.715,-1.715,0,-1.7163,-1.7163,-1.7163,-1.7139,-1.7138,-1.7137,-1.7136,-1.7152,-1.7153,-1.7155,0,0,0,0,0,0,0,0,0,0,0,0,0,-1.7106,-1.7107,-1.715,-1.715,-1.715,-1.7163,-1.7163,-1.7163,-1.7139,-1.7138,-1.7137,-1.7136,-1.7152,-1.7153,-1.7155,0,0,0,0,0,0,0,0,0,0,0,0,0,-1.7123,-1.7107,-1.715,-1.7139,-1.7139,-1.7163,-1.7163,-1.7163,-1.7139,-1.7138,-1.7136,-1.7135,-1.7151,-1.7153,-1.7155,-1.7191,0,0,-1.716,-1.7161,0,0,0,0,0,0,0,0,-1.7122,-1.7124,-1.7141,-1.714,-1.7139,-1.7148,-1.7153,-1.7173,-1.7139,-1.7139,-1.7136,-1.7135,-1.7152,-1.7154,-1.7159,-1.7192,-1.7192,-1.7161,-1.7162,-1.7162,-1.7163,0,0,0,0,0,0,0,-1.7121,-1.7124,-1.7155,-1.7141,-1.714,-1.7135,-1.7136,-1.7157,-1.7152,-1.7139,-1.7137,-1.7139,-1.7151,-1.7157,-1.7159,-1.7192,-1.716,-1.7162,-1.7163,-1.7164,-1.7254,-1.7255,0,0,0,0,0,0,-1.712,-1.7123,-1.7155,-1.7155,-1.7127,-1.7137,-1.7138,-1.7146,-1.7152,-1.7152,-1.714,-1.7138,-1.7155,-1.7157,-1.716,-1.72,-1.7162,-1.7164,-1.7165,-1.7253,-1.7254,-1.7256,0,0,0,0,0,0,-1.7119,-1.7123,-1.7154,-1.7139,-1.7142,-1.7139,-1.7149,-1.7147,-1.7153,-1.7153,-1.7152,-1.7146,-1.7154,-1.7157,-1.7183,-1.7201,-1.7165,-1.7167,-1.7251,-1.7253,-1.7255,-1.7284,0,0,0,0,0,0,-1.7118,-1.7123,-1.7136,-1.7139,-1.7143,-1.7176,-1.715,-1.7148,-1.7156,-1.7153,-1.7159,-1.7159,-1.7153,-1.718,-1.7185,-1.7203,-1.7168,-1.725,-1.7252,-1.7255,-1.7281,-1.7286,-1.7291,0,0,0,0,0,-1.7117,-1.7145,-1.7137,-1.7141,-1.7159,-1.7178,-1.718,-1.7172,-1.7157,-1.7171,-1.717,-1.7158,-1.7199,-1.7183,-1.7188,-1.7207,-1.7248,-1.7252,-1.7254,-1.7279,-1.7285,-1.7291,0,0,0,0,0,0,-1.7145,-1.7145,-1.7136,-1.7166,-1.7172,-1.7173,-1.719,-1.718,-1.7191,-1.7188,-1.7179,-1.718,-1.7207,-1.721,-1.7193,-1.7241,-1.7221,-1.7225,-1.7238,-1.7244,-1.7249,-1.7247,-1.7169,0,0,0,0,0,-1.7155,-1.7169,-1.7168,-1.7195,-1.7198,-1.7193,-1.7201,-1.7195,-1.7201,-1.7204,-1.7205,-1.7212,-1.7226,-1.7236,-1.7249,-1.7282,-1.7282,-1.7297,-1.7302,-1.7306,-1.731,-1.7326,-1.7332,-1.7266,-1.7266,-1.7266,0,0,-1.7175,-1.7177,-1.7186,-1.72,-1.7204,-1.7219,-1.7196,-1.7213,-1.7224,-1.7207,-1.723,-1.7232,-1.7239,-1.7268,-1.7281,-1.7271,-1.7328,-1.731,-1.7313,-1.7314,-1.733,-1.7336,-1.7342,-1.7268,-1.7267,-1.7267,0,0,-1.7219,-1.7222,-1.7243,-1.7248,-1.7253,-1.725,-1.7255,-1.7258,-1.7258,-1.7281,-1.7268,-1.7282,-1.7307,-1.7312,-1.7318,-1.7364,-1.7353,-1.7369,-1.7394,-1.741,-1.7415,-1.742,-1.7434,-1.744,-1.7372,-1.7372,-1.7372,0,-1.7244,-1.7265,-1.7256,-1.7274,-1.728,-1.7264,-1.7285,-1.729,-1.73,-1.7305,-1.7294,-1.7323,-1.7328,-1.7357,-1.7368,-1.7374,-1.7379,-1.7367,-1.7415,-1.7419,-1.7424,-1.7438,-1.7443,-1.7374,-1.7374,-1.7373,-1.7373,0,-1.7294,-1.7309,-1.7326,-1.7334,-1.7343,-1.7363,-1.7357,-1.7367,-1.736,-1.7358,-1.7382,-1.7386,-1.7399,-1.7406,-1.74,-1.7435,-1.7428,-1.7416,-1.7395,-1.7432,-1.7445,-1.745,-1.7376,-1.7376,-1.7375,-1.7375,0,0,-1.7356,-1.7358,-1.7365,-1.7368,-1.7373,-1.7384,-1.7404,-1.7415,-1.7423,-1.7431,-1.7446,-1.7468,-1.7456,-1.7463,-1.7458,-1.7472,-1.7506,-1.7458,-1.7458,-1.7465,-1.7543,-1.7551,-1.7557,-1.75,-1.7501,-1.7501,-1.7542,0,-1.7398,-1.7429,-1.7421,-1.7452,-1.7466,-1.7451,-1.7467,-1.7472,-1.7471,-1.7483,-1.7483,-1.7497,-1.7482,-1.7485,-1.7499,-1.7499,-1.7521,-1.7496,-1.7513,-1.7514,-1.751,-1.7564,-1.7572,-1.761,-1.7547,-1.7548,-1.7549,0,-1.7451,-1.7459,-1.7491,-1.7492,-1.7498,-1.7513,-1.7522,-1.7534,-1.754,-1.7538,-1.7545,-1.7537,-1.7556,-1.7536,-1.7562,-1.7546,-1.7552,-1.7554,-1.7555,-1.7555,-1.7532,-1.7564,-1.7622,-1.7627,-1.7557,-1.7556,-1.7556,0,-1.749,-1.751,-1.7531,-1.7534,-1.7537,-1.7548,-1.755,-1.7554,-1.7561,-1.757,-1.7574,-1.7586,-1.7592,-1.7602,-1.7597,-1.7583,-1.7624,-1.7604,-1.7622,-1.7622,-1.763,-1.7629,-1.7688,-1.7637,-1.7637,-1.7637,-1.7637,0,-1.7537,-1.7557,-1.7548,-1.7561,-1.7583,-1.7574,-1.7596,-1.7597,-1.7601,-1.7614,-1.7603,-1.7615,-1.7609,-1.7621,-1.7618,-1.7639,-1.7643,-1.7642,-1.764,-1.7642,-1.7641,-1.7645,-1.7641,-1.7639,-1.7638,-1.7638,-1.7638,0,-1.7584,-1.7579,-1.7601,-1.7601,-1.7602,-1.7618,-1.7619,-1.7631,-1.7629,-1.7646,-1.7649,-1.7647,-1.7661,-1.7657,-1.7673,-1.7671,-1.7697,-1.7693,-1.7694,-1.7693,-1.7711,-1.7708,-1.7773,-1.778,-1.7726,-1.7727,-1.7727,0,-1.7613,-1.7627,-1.7629,-1.7636,-1.7639,-1.7651,-1.7658,-1.7651,-1.7658,-1.7665,-1.7677,-1.7689,-1.7699,-1.7722,-1.7722,-1.7734,-1.7729,-1.7751,-1.7731,-1.7731,-1.7727,-1.7726,-1.7727,-1.7754,-1.7755,-1.7756,-1.7756,0,-1.7665,-1.7661,-1.7671,-1.7679,-1.7687,-1.7694,-1.77,-1.7707,-1.7701,-1.771,-1.7723,-1.7731,-1.7746,-1.7758,-1.7769,-1.7772,-1.7763,-1.7762,-1.7767,-1.7768,-1.7767,-1.7766,-1.7703,-1.7761,-1.776,-1.776,-1.776,-1.7759,-1.7702,-1.7714,-1.7716,-1.7727,-1.7731,-1.7737,-1.7747,-1.7747,-1.7757,-1.7768,-1.7764,-1.7779,-1.7784,-1.7797,-1.7801,-1.7813,-1.7805,-1.7812,-1.7814,-1.7815,-1.7816,-1.7766,-1.7816,-1.7816,-1.7815,-1.7815,-1.7815,0,-1.7752,-1.7753,-1.7763,-1.777,-1.7779,-1.7769,-1.7775,-1.7783,-1.7796,-1.7801,-1.781,-1.7826,-1.7838,-1.7838,-1.785,-1.7859,-1.7855,-1.7862,-1.7861,-1.7861,-1.7824,-1.7818,-1.7865,-1.7865,-1.7865,-1.7865,-1.7865,-1.7865,-1.7778,-1.7797,-1.7794,-1.7814,-1.7815,-1.7829,-1.7833,-1.7838,-1.7842,-1.7858,-1.7868,-1.7868,-1.7872,-1.7883,-1.7894,-1.7894,-1.7898,-1.7906,-1.7904,-1.7869,-1.7864,-1.7859,-1.7853,-1.7907,-1.7907,-1.794,-1.7941,-1.7941]},{"header":{"parameterUnit":"m.s-1","parameterCategory":1,"la1":30.2991,"la2":30.254,"lo1":-89.0895,"lo2":-89.0444,"dy":0.0017,"dx":0.0017,"nx":28,"ny":28,"refTime":"2025-12-28T03:00:00:Z","depth":0,"parameterNumber":3,"parameterNumberName":"V-component_of_WINDS"},"data":[0,0,0,0,0,0,0,0,0,0,0,0,0,0,0,0,0,0,0,0,0,0,0,0,0,0,0,0,0,0,0,0,0,0,0,0,0,0,0,0,0,0,0,0,0,0,0,0,0,0,0,0,0,0,0,0,0,0,2.3183,2.3184,0,2.3281,2.3282,2.3283,2.3297,2.3296,2.3295,2.3294,2.3393,2.3397,2.34,0,0,0,0,0,0,0,0,0,0,0,0,0,2.3012,2.3015,2.3183,2.3185,2.3186,2.328,2.3282,2.3283,2.3297,2.3296,2.3295,2.3294,2.3392,2.3396,2.34,0,0,0,0,0,0,0,0,0,0,0,0,0,2.3095,2.3016,2.3183,2.3204,2.3207,2.328,2.3282,2.3283,2.3297,2.3296,2.3295,2.3293,2.3391,2.3396,2.3401,2.346,0,0,2.3417,2.3419,0,0,0,0,0,0,0,0,2.309,2.3101,2.32,2.3203,2.3206,2.3275,2.3258,2.3343,2.3298,2.3263,2.3294,2.3293,2.3355,2.3363,2.3384,2.3464,2.3469,2.3417,2.342,2.3423,2.3424,0,0,0,0,0,0,0,2.3085,2.3097,2.3222,2.3201,2.3205,2.3209,2.322,2.3274,2.3315,2.3266,2.3267,2.3278,2.3356,2.3379,2.3387,2.347,2.3417,2.3422,2.3425,2.3427,2.3608,2.361,0,0,0,0,0,0,2.3075,2.3092,2.3219,2.3225,2.3144,2.3214,2.3225,2.3254,2.3315,2.3323,2.3279,2.3279,2.3371,2.3381,2.339,2.3466,2.3423,2.3428,2.3431,2.3606,2.3608,2.361,0,0,0,0,0,0,2.3071,2.3086,2.3215,2.3159,2.3176,2.3218,2.3251,2.3257,2.328,2.3325,2.3333,2.3295,2.337,2.3383,2.3443,2.347,2.343,2.3435,2.3604,2.3607,2.3609,2.3617,0,0,0,0,0,0,2.3066,2.3085,2.3107,2.3159,2.3179,2.3266,2.3252,2.326,2.3289,2.3289,2.3342,2.3349,2.337,2.3436,2.3449,2.3476,2.3439,2.3602,2.3606,2.3609,2.3615,2.3619,2.3624,0,0,0,0,0,2.306,2.3104,2.3108,2.3123,2.3207,2.3267,2.3278,2.3302,2.3291,2.3314,2.3344,2.3347,2.3464,2.3442,2.3456,2.3486,2.3601,2.3605,2.3608,2.3613,2.3619,2.3624,0,0,0,0,0,0,2.3052,2.3111,2.3116,2.3178,2.3218,2.3269,2.3299,2.3307,2.335,2.3348,2.3375,2.3387,2.3448,2.3472,2.3446,2.3548,2.3532,2.3539,2.353,2.3536,2.354,2.3534,2.3443,0,0,0,0,0,2.3058,2.3101,2.315,2.3201,2.3221,2.3257,2.3284,2.3299,2.3341,2.3357,2.3391,2.3432,2.3479,2.3508,2.3553,2.3618,2.3631,2.3646,2.365,2.3654,2.366,2.37,2.3708,2.3623,2.3623,2.3623,0,0,2.307,2.3107,2.3133,2.32,2.3233,2.3279,2.327,2.3318,2.3353,2.3364,2.3425,2.3451,2.3499,2.3563,2.3592,2.3585,2.3687,2.3659,2.3661,2.3666,2.3705,2.3713,2.372,2.3625,2.3625,2.3624,0,0,2.3115,2.3147,2.3194,2.3228,2.3277,2.3302,2.3313,2.3365,2.3383,2.3444,2.3455,2.3496,2.3575,2.3609,2.3637,2.37,2.3706,2.3713,2.3737,2.3776,2.3783,2.3789,2.3814,2.3823,2.3719,2.3719,2.3719,0,2.3124,2.3193,2.3217,2.3266,2.3297,2.331,2.336,2.3391,2.3452,2.3474,2.3465,2.3566,2.3599,2.3673,2.3689,2.3709,2.3725,2.3708,2.378,2.3786,2.3792,2.3817,2.3826,2.372,2.372,2.372,2.3719,0,2.3203,2.3251,2.3283,2.3344,2.3378,2.3427,2.346,2.3491,2.3504,2.353,2.3593,2.3633,2.3688,2.3707,2.3718,2.3784,2.3778,2.3774,2.3758,2.3801,2.3825,2.3834,2.3721,2.3721,2.372,2.372,0,0,2.3246,2.3322,2.3333,2.3363,2.342,2.3458,2.3508,2.3563,2.3591,2.3634,2.3678,2.3746,2.3744,2.3775,2.3791,2.3825,2.3876,2.3817,2.3819,2.383,2.3954,2.3959,2.3969,2.388,2.3882,2.3883,2.3952,0,2.3301,2.3391,2.3416,2.3493,2.3539,2.3554,2.3598,2.3639,2.3665,2.3709,2.3737,2.3786,2.3777,2.3797,2.3831,2.3863,2.3902,2.3858,2.3924,2.3926,2.3914,2.3981,2.3986,2.4048,2.3961,2.3962,2.3963,0,2.3376,2.3422,2.3504,2.3559,2.358,2.3619,2.3673,2.3714,2.3761,2.3778,2.3815,2.3829,2.3884,2.3864,2.3941,2.3911,2.3939,2.3959,2.3962,2.3971,2.3949,2.3995,2.4068,2.4079,2.3977,2.3976,2.3975,0,2.3404,2.3486,2.3547,2.3571,2.3635,2.3663,2.3691,2.3737,2.377,2.3817,2.3839,2.3891,2.392,2.3961,2.399,2.3972,2.4066,2.4048,2.4084,2.4083,2.4104,2.4103,2.4186,2.4118,2.4118,2.4117,2.4117,0,2.3463,2.3514,2.356,2.3598,2.3656,2.3684,2.3741,2.377,2.3811,2.3856,2.3871,2.3912,2.3946,2.3993,2.4015,2.4078,2.409,2.4107,2.4113,2.4107,2.4106,2.4128,2.4125,2.412,2.4119,2.4119,2.4118,0,2.3504,2.3537,2.3605,2.3661,2.3676,2.3717,2.3766,2.3804,2.383,2.3887,2.3902,2.3944,2.4001,2.4033,2.4103,2.4118,2.4189,2.4191,2.4173,2.4177,2.4212,2.4209,2.4314,2.4331,2.4249,2.4249,2.425,0,2.3541,2.3581,2.3642,2.3674,2.3703,2.3752,2.3787,2.3817,2.3852,2.391,2.3942,2.3999,2.4047,2.4136,2.4174,2.4228,2.4234,2.4267,2.4242,2.4237,2.4238,2.4237,2.4243,2.4272,2.4273,2.4273,2.4274,0,2.3606,2.3621,2.3669,2.3724,2.3765,2.3809,2.3854,2.3879,2.3916,2.3955,2.4014,2.4051,2.4124,2.4181,2.424,2.4269,2.4279,2.4281,2.4293,2.4289,2.4278,2.4288,2.4188,2.4279,2.4278,2.4278,2.4278,2.4277,2.3648,2.3685,2.3736,2.379,2.3827,2.3869,2.3909,2.3941,2.3991,2.4053,2.4068,2.413,2.4179,2.4259,2.429,2.434,2.4335,2.435,2.4355,2.4359,2.4363,2.4268,2.435,2.435,2.435,2.435,2.435,0,2.3716,2.3749,2.3799,2.3862,2.3906,2.3911,2.3961,2.3997,2.4052,2.4097,2.4144,2.4213,2.427,2.4313,2.4371,2.4403,2.441,2.4418,2.4417,2.4425,2.4362,2.4348,2.4412,2.4412,2.4412,2.4412,2.4412,2.4412,2.3756,2.3821,2.3843,2.3927,2.396,2.4022,2.4051,2.409,2.4127,2.4203,2.4251,2.4279,2.4324,2.4386,2.444,2.4451,2.4473,2.4482,2.4494,2.4435,2.4429,2.4422,2.4409,2.4485,2.4485,2.4553,2.4553,2.4554]}]]